Regional Weather Roundup
Issued by NWS Burlington, VT

Home | Current Version | Previous Version | Text Only | Print | Product List | Glossary On
Versions: 1 2 3 4 5 6 7 8 9 10 11 12 13 14 15 16 17 18 19 20 21 22 23 24 25 26 27 28 29 30 31 32 33 34 35 36 37 38 39 40 41 42 43 44 45 46 47 48 49 50
000
ASUS41 KBTV 222330
RWRBTV
VERMONT REGIONAL WEATHER ROUNDUP
NATIONAL WEATHER SERVICE BURLINGTON VT
600 PM EST MON DEC 22 2014

NOTE: "FAIR" INDICATES FEW OR NO CLOUDS BELOW 12,000 FEET WITH NO
SIGNIFICANT WEATHER AND/OR OBSTRUCTIONS TO VISIBILITY.

* THESE REPORTS ARE NOT UNDER NWS QUALITY CONTROL AND/OR DO NOT
  REPORT WEATHER SUCH AS PRECIPITATION AND FOG.

VTZ001>019-230000-
_____VERMONT_____


CITY           SKY/WX    TMP DP  RH WIND       PRES   REMARKS
BURLINGTON     CLOUDY    26  21  81 CALM      30.30F
MONTPELIER     LGT SNOW  30  27  88 CALM      30.32S FOG
MORRISVILLE    CLOUDY    31  26  82 CALM      30.31S
ST. JOHNSBURY*   N/A     33  26  75 MISG      30.30S
LYNDONVILLE*   CLOUDY    30  25  81 CALM      30.30S
MIDDLEBURY*    CLOUDY    29  27  91 CALM      30.28F
RUTLAND*       CLOUDY    34  30  86 S6        30.28F
SPRINGFIELD    LGT SNOW  32  31  96 CALM      30.32S FOG
HIGHGATE*      CLOUDY    21  17  87 CALM      30.31F
NEWPORT*       CLOUDY    28  25  89 CALM      30.30S
BENNINGTON     CLOUDY    38  31  76 SE16      30.25F
SUTTON*          N/A     28 N/A N/A MISG        N/A
GALLUP MILLS*    N/A     30 N/A N/A MISG        N/A
UNION VILLAGE*   N/A     32 N/A N/A MISG        N/A
MT. MANSFIELD*   N/A     25 N/A N/A CALM        N/A

_____LAKE CHAMPLAIN_____


CITY           SKY/WX    TMP DP  RH WIND       PRES   REMARKS
BURTON ISLAND*   N/A     25  21  86 N1          N/A
COLCHESTER RF*   N/A     27  25  93 NE7         N/A

$$

NYZ007-026>031-035-052-083-230000-
_____NORTHERN NEW YORK_____


CITY           SKY/WX    TMP DP  RH WIND       PRES   REMARKS
PLATTSBURGH    CLOUDY    22  18  85 N5        30.31F
SARANAC LAKE     N/A    N/A N/A N/A MISG      30.17S
MASSENA        CLOUDY    23  18  81 NE12      30.28F WCI  12
OGDENSBURG*    CLOUDY    25  21  86 E6        30.23F
POTSDAM*       CLOUDY    25  21  86 E7        30.24S
STARK FALLS*     N/A     32 N/A N/A E2          N/A
WATERTOWN      PTCLDY    29  22  75 E3        30.18F
FT DRUM        PTCLDY    33  25  70 SE12      30.17S
ALBANY         CLOUDY    35  27  72 CALM      30.27F
GLENS FALLS    CLOUDY    33  26  75 CALM      30.28S

$$
NHZ002-005-011-230000-
_____NEW HAMPSHIRE_____


CITY           SKY/WX    TMP DP  RH WIND       PRES   REMARKS
LEBANON        CLOUDY    33  29  85 CALM      30.31F
KEENE          CLOUDY    36  30  80 CALM      30.31S
MT WASHINGTON  FOG       14  14 100 S15         N/A  VSB 1/16WCI  -1
PLYMOUTH       MIX PCPN  32  32  99 CALM      30.34S
WHITEFIELD     CLOUDY    32  29  88 CALM      30.30R

$$

_____REGIONAL QUEBEC LOCATIONS_____


CITY           SKY/WX    TMP DP  RH WIND       PRES   REMARKS
MONTREAL       MOCLDY    19  16  86 NE9       30.34F
QUEBEC CITY    MOCLDY    21  16  79 NE2       30.39
SHERBROOKE     CLOUDY    27  27 100 E6        30.30F

_____REGIONAL ONTARIO LOCATIONS_____


CITY           SKY/WX    TMP DP  RH WIND       PRES   REMARKS
OTTAWA         CLOUDY    21  19  93 E10       30.26S WCI  10

______KEY______
VSB  - VISIBILITY IN MILES
WCI  - WIND CHILL INDEX
HX   - HEAT INDEX
$$
NNNN



USA.gov is the U.S. government's official web portal to all federal, state and local government web resources and services.